[[{"header":{"parameterUnit":"m.s-1","parameterCategory":1,"la1":30.2991,"la2":30.254,"lo1":-89.0895,"lo2":-89.0444,"dy":0.0017,"dx":0.0017,"nx":28,"ny":28,"refTime":"2024-10-17T09:00:00:Z","depth":0,"parameterNumber":2,"parameterNumberName":"U-component_of_WINDS"},"data":[0,0,0,0,0,0,0,0,0,0,0,0,0,0,0,0,0,0,0,0,0,0,0,0,0,0,0,0,0,0,0,0,0,0,0,0,0,0,0,0,0,0,0,0,0,0,0,0,0,0,0,0,0,0,0,0,0,0,-4.9775,-4.9774,0,-4.9717,-4.9716,-4.9715,-4.9497,-4.9492,-4.9487,-4.9483,-4.9427,-4.943,-4.9433,0,0,0,0,0,0,0,0,0,0,0,0,0,-4.9701,-4.9703,-4.9775,-4.9774,-4.9773,-4.9717,-4.9716,-4.9715,-4.9498,-4.9492,-4.9486,-4.948,-4.9426,-4.943,-4.9434,0,0,0,0,0,0,0,0,0,0,0,0,0,-4.9697,-4.9704,-4.9775,-4.9658,-4.9647,-4.9717,-4.9716,-4.9715,-4.9499,-4.9492,-4.9484,-4.9477,-4.9425,-4.943,-4.9434,-4.9614,0,0,-4.9449,-4.9451,0,0,0,0,0,0,0,0,-4.9698,-4.97,-4.9676,-4.9666,-4.9654,-4.9606,-4.9669,-4.9681,-4.9501,-4.9556,-4.9482,-4.9474,-4.9493,-4.9492,-4.9498,-4.9611,-4.9609,-4.9449,-4.9452,-4.9454,-4.9456,0,0,0,0,0,0,0,-4.9698,-4.9702,-4.9752,-4.9676,-4.9663,-4.961,-4.9601,-4.9671,-4.9567,-4.955,-4.9534,-4.953,-4.9486,-4.9494,-4.9495,-4.9608,-4.9449,-4.9453,-4.9456,-4.9458,-4.9864,-4.9872,0,0,0,0,0,0,-4.9715,-4.9703,-4.9754,-4.975,-4.9658,-4.9617,-4.9607,-4.9629,-4.9566,-4.9549,-4.9537,-4.952,-4.9489,-4.9489,-4.9492,-4.9695,-4.9454,-4.9459,-4.9461,-4.9856,-4.9866,-4.9874,0,0,0,0,0,0,-4.9714,-4.9721,-4.9756,-4.9722,-4.9723,-4.9626,-4.9653,-4.9632,-4.9639,-4.9555,-4.9536,-4.9563,-4.9483,-4.9485,-4.9584,-4.9691,-4.9461,-4.9465,-4.9847,-4.9859,-4.987,-5.0107,0,0,0,0,0,0,-4.9713,-4.9722,-4.9789,-4.9725,-4.9725,-4.9849,-4.966,-4.9636,-4.9648,-4.9626,-4.9575,-4.956,-4.9477,-4.9578,-4.9589,-4.9693,-4.9469,-4.9837,-4.9852,-4.9866,-5.0089,-5.0125,-5.0156,0,0,0,0,0,-4.9711,-4.9859,-4.9793,-4.98,-4.9806,-4.9856,-4.9856,-4.9756,-4.9657,-4.9723,-4.9669,-4.9561,-4.9678,-4.959,-4.9601,-4.9708,-4.983,-4.9848,-4.9865,-5.0074,-5.0118,-5.0155,0,0,0,0,0,0,-4.9939,-4.9848,-4.9774,-4.9906,-4.989,-4.9819,-4.9899,-4.9807,-4.982,-4.9799,-4.9676,-4.9667,-4.9784,-4.9756,-4.966,-4.9877,-4.9736,-4.9757,-4.9891,-4.9932,-4.9965,-4.9968,-4.9473,0,0,0,0,0,-5.0004,-5.0051,-4.997,-5.0094,-5.0089,-4.9997,-5.0014,-4.9939,-4.9918,-4.9911,-4.9864,-4.9849,-4.9881,-4.9905,-4.9931,-5.0085,-5.007,-5.0163,-5.0197,-5.0225,-5.0244,-5.0321,-5.0362,-4.9933,-4.9933,-4.9932,0,0,-5.014,-5.0096,-5.0134,-5.0139,-5.0117,-5.0169,-4.9992,-5.0055,-5.0092,-4.992,-5.001,-4.9976,-4.9951,-5.0078,-5.0131,-5.0058,-5.0359,-5.0248,-5.0271,-5.0274,-5.0344,-5.0385,-5.0421,-4.9945,-4.9943,-4.9941,0,0,-5.0413,-5.0386,-5.0484,-5.0467,-5.0436,-5.0373,-5.0397,-5.034,-5.031,-5.0398,-5.027,-5.0314,-5.0373,-5.036,-5.0361,-5.063,-5.0531,-5.0642,-5.0817,-5.0894,-5.0928,-5.0957,-5.1052,-5.1087,-5.0662,-5.0662,-5.0663,0,-5.0586,-5.0657,-5.0548,-5.0617,-5.0623,-5.047,-5.0569,-5.0558,-5.0539,-5.0547,-5.0465,-5.0535,-5.0508,-5.0629,-5.0694,-5.0701,-5.0725,-5.0646,-5.0932,-5.096,-5.0986,-5.1074,-5.111,-5.0676,-5.0674,-5.0673,-5.0672,0,-5.087,-5.0922,-5.1006,-5.0988,-5.1004,-5.1089,-5.0993,-5.1023,-5.0947,-5.0893,-5.0985,-5.0947,-5.0961,-5.0985,-5.0913,-5.1096,-5.1051,-5.0954,-5.0808,-5.1042,-5.1123,-5.1156,-5.0695,-5.069,-5.0686,-5.0683,0,0,-5.1283,-5.1204,-5.1236,-5.1226,-5.1181,-5.1219,-5.1298,-5.131,-5.1337,-5.133,-5.1392,-5.1446,-5.1355,-5.1357,-5.1282,-5.135,-5.1563,-5.1243,-5.124,-5.1302,-5.1761,-5.1833,-5.1874,-5.1498,-5.1504,-5.1509,-5.1762,0,-5.154,-5.1667,-5.1571,-5.1716,-5.1761,-5.1617,-5.1685,-5.1666,-5.1619,-5.1651,-5.1599,-5.1638,-5.1516,-5.1516,-5.1577,-5.1525,-5.1654,-5.1505,-5.1555,-5.1558,-5.1563,-5.1917,-5.1993,-5.2234,-5.1794,-5.1799,-5.1803,0,-5.1857,-5.1861,-5.201,-5.1954,-5.1969,-5.2032,-5.2035,-5.2069,-5.2045,-5.2005,-5.2008,-5.1915,-5.1989,-5.1849,-5.1949,-5.185,-5.1865,-5.1843,-5.185,-5.1848,-5.1693,-5.1923,-5.2308,-5.2344,-5.1852,-5.1848,-5.1845,0,-5.214,-5.2184,-5.2277,-5.2273,-5.2212,-5.2259,-5.2236,-5.2203,-5.2217,-5.2221,-5.2229,-5.2243,-5.2251,-5.2264,-5.2178,-5.2084,-5.2289,-5.2142,-5.2258,-5.2261,-5.2305,-5.2303,-5.2696,-5.2321,-5.232,-5.2319,-5.2319,0,-5.2436,-5.2532,-5.2403,-5.2461,-5.2564,-5.2454,-5.256,-5.2522,-5.2495,-5.2543,-5.2421,-5.247,-5.2354,-5.2391,-5.2324,-5.2416,-5.2422,-5.2392,-5.2373,-5.2401,-5.2405,-5.2407,-5.2388,-5.2329,-5.2327,-5.2325,-5.2323,0,-5.2769,-5.2686,-5.2778,-5.2712,-5.2698,-5.2777,-5.272,-5.2771,-5.2716,-5.2779,-5.2787,-5.2702,-5.2738,-5.2654,-5.268,-5.2635,-5.2766,-5.2722,-5.2774,-5.2759,-5.288,-5.2869,-5.3286,-5.3335,-5.2931,-5.2935,-5.2938,0,-5.2961,-5.3031,-5.2972,-5.2995,-5.2977,-5.3016,-5.3028,-5.2924,-5.2943,-5.2921,-5.2975,-5.3001,-5.3016,-5.3083,-5.3023,-5.3042,-5.2996,-5.3141,-5.2998,-5.3024,-5.2995,-5.2991,-5.2997,-5.317,-5.3175,-5.3179,-5.3182,0,-5.3311,-5.3267,-5.3289,-5.3297,-5.3315,-5.3317,-5.3311,-5.3337,-5.3226,-5.3253,-5.3288,-5.33,-5.3326,-5.3354,-5.3359,-5.3336,-5.3242,-5.3228,-5.3255,-5.3284,-5.331,-5.3295,-5.2851,-5.3218,-5.3215,-5.3212,-5.321,-5.3208,-5.3577,-5.3632,-5.3598,-5.3627,-5.3611,-5.3608,-5.3652,-5.3602,-5.3629,-5.3639,-5.3577,-5.3626,-5.3601,-5.3598,-5.3586,-5.3623,-5.3557,-5.3598,-5.3608,-5.3619,-5.3637,-5.3307,-5.3624,-5.3623,-5.3622,-5.3621,-5.362,0,-5.3918,-5.389,-5.3917,-5.3911,-5.3934,-5.3841,-5.383,-5.3855,-5.3899,-5.3882,-5.3899,-5.394,-5.3967,-5.3911,-5.3928,-5.397,-5.3927,-5.3978,-5.3972,-5.3968,-5.3696,-5.3669,-5.4012,-5.4012,-5.4012,-5.4012,-5.4012,-5.4012,-5.4098,-5.4185,-5.4137,-5.4216,-5.4186,-5.4231,-5.4232,-5.4229,-5.4215,-5.4265,-5.4286,-5.4248,-5.4216,-5.4231,-5.4252,-5.4234,-5.4246,-5.4312,-5.428,-5.4026,-5.3988,-5.3951,-5.3925,-5.4316,-5.4317,-5.4548,-5.455,-5.4552]},{"header":{"parameterUnit":"m.s-1","parameterCategory":1,"la1":30.2991,"la2":30.254,"lo1":-89.0895,"lo2":-89.0444,"dy":0.0017,"dx":0.0017,"nx":28,"ny":28,"refTime":"2024-10-17T09:00:00:Z","depth":0,"parameterNumber":3,"parameterNumberName":"V-component_of_WINDS"},"data":[0,0,0,0,0,0,0,0,0,0,0,0,0,0,0,0,0,0,0,0,0,0,0,0,0,0,0,0,0,0,0,0,0,0,0,0,0,0,0,0,0,0,0,0,0,0,0,0,0,0,0,0,0,0,0,0,0,0,-1.9193,-1.9193,0,-1.925,-1.9251,-1.9252,-1.9279,-1.9279,-1.9279,-1.9279,-1.9336,-1.9338,-1.9339,0,0,0,0,0,0,0,0,0,0,0,0,0,-1.9102,-1.9103,-1.9193,-1.9193,-1.9194,-1.925,-1.9251,-1.9252,-1.9279,-1.9279,-1.9279,-1.9279,-1.9336,-1.9338,-1.934,0,0,0,0,0,0,0,0,0,0,0,0,0,-1.9148,-1.9104,-1.9192,-1.9214,-1.9217,-1.925,-1.9251,-1.9252,-1.9279,-1.9279,-1.9279,-1.9278,-1.9335,-1.9337,-1.934,-1.9356,0,0,-1.9347,-1.9348,0,0,0,0,0,0,0,0,-1.9146,-1.9152,-1.921,-1.9213,-1.9216,-1.9257,-1.924,-1.9287,-1.9279,-1.9255,-1.9279,-1.9278,-1.931,-1.9314,-1.9325,-1.9358,-1.9361,-1.9347,-1.9349,-1.935,-1.935,0,0,0,0,0,0,0,-1.9142,-1.9149,-1.9215,-1.9211,-1.9214,-1.922,-1.9226,-1.9249,-1.9282,-1.9257,-1.9259,-1.9266,-1.9311,-1.9323,-1.9327,-1.9362,-1.9347,-1.9349,-1.9351,-1.9352,-1.9407,-1.9407,0,0,0,0,0,0,-1.9136,-1.9147,-1.9214,-1.9217,-1.918,-1.9221,-1.9229,-1.9244,-1.9282,-1.9288,-1.9266,-1.9267,-1.9319,-1.9324,-1.9329,-1.9348,-1.935,-1.9352,-1.9353,-1.9407,-1.9407,-1.9407,0,0,0,0,0,0,-1.9134,-1.9142,-1.9211,-1.9182,-1.9192,-1.9223,-1.924,-1.9245,-1.9257,-1.9289,-1.9294,-1.9272,-1.9319,-1.9326,-1.9348,-1.935,-1.9353,-1.9355,-1.9406,-1.9407,-1.9407,-1.9387,0,0,0,0,0,0,-1.9131,-1.9141,-1.9148,-1.9182,-1.9193,-1.9231,-1.924,-1.9246,-1.9261,-1.9263,-1.9296,-1.9301,-1.932,-1.9344,-1.935,-1.9354,-1.9357,-1.9406,-1.9407,-1.9407,-1.9388,-1.9386,-1.9385,0,0,0,0,0,-1.9128,-1.9141,-1.9149,-1.9157,-1.9203,-1.9231,-1.9237,-1.9258,-1.9261,-1.9268,-1.9288,-1.93,-1.9349,-1.9346,-1.9353,-1.9357,-1.9406,-1.9407,-1.9407,-1.9388,-1.9387,-1.9385,0,0,0,0,0,0,-1.9107,-1.9146,-1.9155,-1.918,-1.9201,-1.9235,-1.9245,-1.9256,-1.9278,-1.9279,-1.9304,-1.9311,-1.933,-1.9346,-1.9343,-1.9373,-1.9379,-1.938,-1.9362,-1.9361,-1.936,-1.9355,-1.9359,0,0,0,0,0,-1.9105,-1.9125,-1.9158,-1.9176,-1.9187,-1.9214,-1.9226,-1.9241,-1.9264,-1.9274,-1.9295,-1.9317,-1.9337,-1.935,-1.937,-1.939,-1.9396,-1.9395,-1.9394,-1.9393,-1.9394,-1.9403,-1.9402,-1.9407,-1.9407,-1.9407,0,0,-1.9102,-1.9125,-1.9137,-1.9172,-1.9191,-1.921,-1.9221,-1.9241,-1.9255,-1.9277,-1.9299,-1.9315,-1.9341,-1.9361,-1.9371,-1.9374,-1.9394,-1.9393,-1.9392,-1.9394,-1.9403,-1.9402,-1.9402,-1.9407,-1.9407,-1.9407,0,0,-1.9105,-1.9126,-1.9142,-1.916,-1.9188,-1.9205,-1.9208,-1.924,-1.9251,-1.9274,-1.929,-1.9305,-1.934,-1.9357,-1.937,-1.9375,-1.9386,-1.9381,-1.9375,-1.9383,-1.9383,-1.9383,-1.9383,-1.9383,-1.9382,-1.9382,-1.9382,0,-1.9097,-1.9127,-1.9149,-1.9167,-1.9181,-1.9201,-1.9216,-1.9233,-1.9265,-1.9274,-1.9278,-1.9319,-1.9338,-1.9361,-1.9362,-1.9373,-1.9376,-1.9378,-1.9381,-1.9381,-1.9381,-1.9382,-1.9382,-1.9381,-1.9381,-1.9381,-1.9381,0,-1.9114,-1.9134,-1.9144,-1.9174,-1.9189,-1.9206,-1.9229,-1.9242,-1.9254,-1.927,-1.9291,-1.9314,-1.9338,-1.9344,-1.9357,-1.9368,-1.9369,-1.9377,-1.9383,-1.9379,-1.938,-1.9381,-1.938,-1.938,-1.938,-1.938,0,0,-1.9108,-1.9148,-1.9151,-1.9164,-1.9195,-1.921,-1.9226,-1.9249,-1.9258,-1.9279,-1.9292,-1.9319,-1.9326,-1.934,-1.9354,-1.9361,-1.9361,-1.9368,-1.9369,-1.9365,-1.9372,-1.9366,-1.9366,-1.9369,-1.9369,-1.9369,-1.937,0,-1.9115,-1.9145,-1.9164,-1.9187,-1.9204,-1.9221,-1.9235,-1.9254,-1.9269,-1.9284,-1.93,-1.9318,-1.9326,-1.9335,-1.9342,-1.936,-1.9363,-1.936,-1.938,-1.938,-1.9372,-1.9367,-1.9361,-1.936,-1.937,-1.937,-1.937,0,-1.9127,-1.9146,-1.917,-1.9196,-1.9204,-1.9216,-1.9237,-1.9252,-1.9273,-1.9283,-1.9297,-1.9311,-1.9327,-1.9331,-1.9352,-1.9349,-1.9358,-1.9367,-1.9368,-1.937,-1.9375,-1.9368,-1.9361,-1.9361,-1.9371,-1.9371,-1.9371,0,-1.9118,-1.915,-1.9168,-1.9178,-1.9209,-1.9216,-1.9229,-1.925,-1.9262,-1.928,-1.9287,-1.9307,-1.9317,-1.9332,-1.9349,-1.9351,-1.9367,-1.9374,-1.9375,-1.9374,-1.9378,-1.9377,-1.9371,-1.9384,-1.9384,-1.9384,-1.9384,0,-1.9122,-1.9136,-1.9164,-1.9175,-1.9189,-1.9209,-1.9223,-1.9237,-1.9255,-1.9268,-1.9284,-1.9295,-1.9318,-1.9332,-1.9345,-1.9359,-1.9364,-1.9371,-1.9375,-1.937,-1.9368,-1.9376,-1.9376,-1.9384,-1.9384,-1.9384,-1.9384,0,-1.9115,-1.9134,-1.9154,-1.9181,-1.9188,-1.9197,-1.9219,-1.9229,-1.9244,-1.9259,-1.9264,-1.9287,-1.9303,-1.9322,-1.9345,-1.9354,-1.9366,-1.9372,-1.9359,-1.9361,-1.936,-1.9359,-1.9358,-1.9358,-1.9372,-1.9372,-1.9371,0,-1.9117,-1.9127,-1.9154,-1.9163,-1.9176,-1.9191,-1.9203,-1.9222,-1.9233,-1.9255,-1.9262,-1.928,-1.9295,-1.932,-1.9338,-1.9354,-1.936,-1.9358,-1.9362,-1.9356,-1.9358,-1.9357,-1.9357,-1.9357,-1.9357,-1.9356,-1.9356,0,-1.9117,-1.9125,-1.9141,-1.9159,-1.9172,-1.9188,-1.9204,-1.921,-1.9233,-1.9244,-1.926,-1.9272,-1.9294,-1.931,-1.9329,-1.9341,-1.9351,-1.9354,-1.9355,-1.935,-1.9341,-1.9344,-1.9355,-1.9355,-1.9355,-1.9355,-1.9355,-1.9355,-1.9113,-1.9122,-1.9142,-1.9158,-1.9172,-1.9185,-1.9195,-1.921,-1.9225,-1.9244,-1.9254,-1.927,-1.9287,-1.9313,-1.9324,-1.9336,-1.934,-1.9342,-1.9342,-1.9342,-1.9339,-1.934,-1.934,-1.934,-1.934,-1.934,-1.934,0,-1.9113,-1.9126,-1.914,-1.9161,-1.9173,-1.9182,-1.9199,-1.9208,-1.9222,-1.9238,-1.9252,-1.9269,-1.9284,-1.9302,-1.9318,-1.9324,-1.9329,-1.9327,-1.9326,-1.9329,-1.9336,-1.9333,-1.9322,-1.9322,-1.9322,-1.9322,-1.9322,-1.9322,-1.9114,-1.9129,-1.9139,-1.9159,-1.9172,-1.9187,-1.9196,-1.9208,-1.922,-1.9239,-1.9251,-1.9263,-1.9278,-1.9295,-1.9308,-1.9313,-1.9318,-1.9314,-1.932,-1.9327,-1.9328,-1.933,-1.9327,-1.9315,-1.9315,-1.9312,-1.9312,-1.9312]}]]